TimeEDT,TemperatureF,Dew PointF,Humidity,Sea Level PressureIn,VisibilityMPH,Wind Direction,Wind SpeedMPH,Gust SpeedMPH,PrecipitationIn,Events,Conditions,WindDirDegrees,DateUTC
12:15 AM,42.1,34.0,73,30.07,10.0,SSE,3.5,-,N/A,,Clear,160,2013-10-27 04:15:00
12:35 AM,41.5,34.3,76,30.07,10.0,Calm,Calm,-,N/A,,Clear,0,2013-10-27 04:35:00
12:55 AM,42.8,33.8,70,30.06,10.0,Calm,Calm,-,N/A,,Clear,0,2013-10-27 04:55:00
1:15 AM,42.3,34.3,74,30.06,10.0,Calm,Calm,-,N/A,,Clear,0,2013-10-27 05:15:00
1:35 AM,43.2,34.2,71,30.06,10.0,Calm,Calm,-,N/A,,Clear,0,2013-10-27 05:35:00
1:55 AM,43.7,35.8,74,30.05,10.0,Calm,Calm,-,N/A,,Mostly Cloudy,0,2013-10-27 05:55:00
2:15 AM,43.3,36.1,76,30.05,10.0,Calm,Calm,-,N/A,,Mostly Cloudy,0,2013-10-27 06:15:00
2:35 AM,44.2,36.3,74,30.05,10.0,Calm,Calm,-,N/A,,Mostly Cloudy,0,2013-10-27 06:35:00
2:55 AM,44.1,35.2,71,30.05,10.0,Calm,Calm,-,N/A,,Scattered Clouds,0,2013-10-27 06:55:00
3:15 AM,43.7,35.6,73,30.05,10.0,Calm,Calm,-,N/A,,Clear,0,2013-10-27 07:15:00
3:35 AM,43.3,36.1,76,30.05,10.0,Calm,Calm,-,N/A,,Scattered Clouds,0,2013-10-27 07:35:00
3:55 AM,44.6,37.8,77,30.04,10.0,Calm,Calm,-,N/A,,Mostly Cloudy,0,2013-10-27 07:55:00
4:15 AM,43.7,36.1,75,30.04,10.0,Calm,Calm,-,N/A,,Scattered Clouds,0,2013-10-27 08:15:00
4:35 AM,42.3,36.1,79,30.04,10.0,Calm,Calm,-,N/A,,Clear,0,2013-10-27 08:35:00
4:55 AM,42.6,36.1,78,30.05,10.0,Calm,Calm,-,N/A,,Clear,0,2013-10-27 08:55:00
5:15 AM,42.4,36.1,78,30.05,10.0,Calm,Calm,-,N/A,,Clear,0,2013-10-27 09:15:00
5:35 AM,41.2,35.8,81,30.05,10.0,Calm,Calm,-,N/A,,Clear,0,2013-10-27 09:35:00
5:55 AM,41.5,36.1,81,30.06,10.0,Calm,Calm,-,N/A,,Clear,0,2013-10-27 09:55:00
6:15 AM,41.0,36.1,83,30.06,10.0,Calm,Calm,-,N/A,,Clear,0,2013-10-27 10:15:00
6:35 AM,39.0,35.6,88,30.06,10.0,Calm,Calm,-,N/A,,Clear,0,2013-10-27 10:35:00
6:55 AM,40.1,36.5,87,30.06,10.0,Calm,Calm,-,N/A,,Clear,0,2013-10-27 10:55:00
7:15 AM,39.4,36.1,88,30.07,10.0,Calm,Calm,-,N/A,,Clear,0,2013-10-27 11:15:00
7:35 AM,38.3,35.8,91,30.07,10.0,Calm,Calm,-,N/A,,Clear,0,2013-10-27 11:35:00
7:55 AM,38.5,36.0,91,30.08,10.0,Calm,Calm,-,N/A,,Clear,0,2013-10-27 11:55:00
8:15 AM,38.7,36.7,93,30.09,10.0,Calm,Calm,-,N/A,,Clear,0,2013-10-27 12:15:00
8:35 AM,41.9,38.7,88,30.10,10.0,Calm,Calm,-,N/A,,Clear,0,2013-10-27 12:35:00
8:55 AM,45.1,39.7,81,30.10,10.0,Calm,Calm,-,N/A,,Clear,0,2013-10-27 12:55:00
9:15 AM,48.9,39.4,70,30.11,10.0,NNW,3.5,-,N/A,,Clear,330,2013-10-27 13:15:00
9:35 AM,51.1,40.3,67,30.11,10.0,Calm,Calm,-,N/A,,Scattered Clouds,0,2013-10-27 13:35:00
9:55 AM,53.2,40.5,62,30.11,10.0,Calm,Calm,-,N/A,,Scattered Clouds,0,2013-10-27 13:55:00
10:15 AM,55.0,39.4,56,30.11,10.0,NNW,4.6,-,N/A,,Clear,340,2013-10-27 14:15:00
10:35 AM,57.9,39.7,51,30.12,10.0,Calm,Calm,-,N/A,,Clear,0,2013-10-27 14:35:00
10:55 AM,59.0,38.5,47,30.11,10.0,NW,3.5,-,N/A,,Clear,320,2013-10-27 14:55:00
11:15 AM,59.2,37.9,45,30.11,10.0,Calm,Calm,-,N/A,,Scattered Clouds,0,2013-10-27 15:15:00
11:35 AM,60.3,37.2,42,30.11,10.0,NW,4.6,-,N/A,,Scattered Clouds,310,2013-10-27 15:35:00
11:55 AM,62.6,35.2,36,30.11,10.0,NNW,3.5,-,N/A,,Scattered Clouds,330,2013-10-27 15:55:00
12:15 PM,62.4,34.2,35,30.11,10.0,North,3.5,-,N/A,,Clear,360,2013-10-27 16:15:00
12:35 PM,62.6,34.3,35,30.10,10.0,North,3.5,-,N/A,,Clear,360,2013-10-27 16:35:00
12:55 PM,63.7,34.7,34,30.09,10.0,Calm,Calm,-,N/A,,Clear,0,2013-10-27 16:55:00
1:15 PM,63.7,34.2,33,30.08,10.0,Calm,Calm,-,N/A,,Clear,0,2013-10-27 17:15:00
1:35 PM,64.4,34.2,32,30.07,10.0,Calm,Calm,-,N/A,,Clear,0,2013-10-27 17:35:00
1:55 PM,64.2,34.9,34,30.06,10.0,Calm,Calm,-,N/A,,Clear,0,2013-10-27 17:55:00
2:15 PM,64.2,36.7,36,30.06,10.0,Calm,Calm,-,N/A,,Clear,0,2013-10-27 18:15:00
2:35 PM,64.8,36.1,35,30.06,10.0,Calm,Calm,-,N/A,,Clear,0,2013-10-27 18:35:00
2:55 PM,65.5,35.6,33,30.06,10.0,Calm,Calm,-,N/A,,Clear,0,2013-10-27 18:55:00
3:15 PM,66.0,35.4,32,30.05,10.0,South,3.5,-,N/A,,Clear,190,2013-10-27 19:15:00
3:35 PM,65.8,36.5,34,30.06,10.0,Calm,Calm,-,N/A,,Clear,0,2013-10-27 19:35:00
3:55 PM,65.5,36.5,34,30.06,10.0,Calm,Calm,-,N/A,,Clear,0,2013-10-27 19:55:00
4:15 PM,65.5,36.9,35,30.06,10.0,Calm,Calm,-,N/A,,Clear,0,2013-10-27 20:15:00
4:35 PM,64.4,37.8,37,30.06,10.0,Calm,Calm,-,N/A,,Clear,0,2013-10-27 20:35:00
4:55 PM,63.1,39.0,41,30.07,10.0,Calm,Calm,-,N/A,,Clear,0,2013-10-27 20:55:00
5:15 PM,62.6,39.0,42,30.07,10.0,Calm,Calm,-,N/A,,Clear,0,2013-10-27 21:15:00
5:35 PM,61.5,40.3,46,30.07,10.0,Calm,Calm,-,N/A,,Clear,0,2013-10-27 21:35:00
5:55 PM,57.9,43.0,58,30.08,10.0,Calm,Calm,-,N/A,,Clear,0,2013-10-27 21:55:00
6:15 PM,56.7,43.5,61,30.08,10.0,Calm,Calm,-,N/A,,Clear,0,2013-10-27 22:15:00
6:35 PM,53.1,43.3,70,30.09,10.0,Calm,Calm,-,N/A,,Clear,0,2013-10-27 22:35:00
6:55 PM,51.8,43.7,74,30.10,10.0,Calm,Calm,-,N/A,,Clear,0,2013-10-27 22:55:00
7:15 PM,50.9,43.7,76,30.11,10.0,Calm,Calm,-,N/A,,Clear,0,2013-10-27 23:15:00
7:35 PM,49.3,43.9,82,30.11,10.0,Calm,Calm,-,N/A,,Clear,0,2013-10-27 23:35:00
7:55 PM,47.5,43.5,86,30.12,10.0,Calm,Calm,-,N/A,,Clear,0,2013-10-27 23:55:00
8:15 PM,47.1,43.2,86,30.12,10.0,Calm,Calm,-,N/A,,Clear,0,2013-10-28 00:15:00
8:35 PM,45.7,42.6,89,30.12,10.0,Calm,Calm,-,N/A,,Clear,0,2013-10-28 00:35:00
8:55 PM,45.7,43.0,90,30.13,10.0,Calm,Calm,-,N/A,,Clear,0,2013-10-28 00:55:00
9:15 PM,44.8,42.3,91,30.13,10.0,Calm,Calm,-,N/A,,Clear,0,2013-10-28 01:15:00
9:35 PM,43.9,42.1,93,30.13,7.0,Calm,Calm,-,N/A,,Clear,0,2013-10-28 01:35:00
9:55 PM,43.5,42.1,95,30.14,7.0,Calm,Calm,-,N/A,,Clear,0,2013-10-28 01:55:00
10:15 PM,43.0,41.4,94,30.15,10.0,Calm,Calm,-,N/A,,Clear,0,2013-10-28 02:15:00
10:35 PM,42.4,40.8,94,30.14,7.0,Calm,Calm,-,N/A,,Clear,0,2013-10-28 02:35:00
10:55 PM,42.3,41.0,95,30.15,7.0,Calm,Calm,-,N/A,,Clear,0,2013-10-28 02:55:00
11:15 PM,41.5,40.5,96,30.15,5.0,Calm,Calm,-,N/A,,Clear,0,2013-10-28 03:15:00
11:35 PM,41.0,39.9,96,30.15,7.0,Calm,Calm,-,N/A,,Clear,0,2013-10-28 03:35:00
11:55 PM,40.6,39.6,96,30.16,5.0,Calm,Calm,-,N/A,,Clear,0,2013-10-28 03:55:00